sat.trackr.live / text

‹ back to catalog

STARLINK-11475 [DTC]

NORAD 62226 · 2024-231J

PAYLOAD ACTIVE UNKNOWN

§ Identity

Operator
Country
US
Launch date
2024-12-05
Launch site
AFWTR
Launch vehicle
Mass (kg)
RCS (m²)

Purposes: comms

External: N2YO · Heavens-Above · Gunter

§ Orbital elements

Epoch: 2026-09-21T03:42:25.662816Z

Period
91.74 min
Inclination
53.1565°
Eccentricity
0.0000766
Mean motion
15.69723830 rev/d
Perigee alt
359.2 km
Apogee alt
360.2 km
Semi-major
6,737.8 km
B*
1.2093e-3
RAAN
217.5319°
Arg perigee
67.7663°
Mean anomaly
292.3436°
Rev number
10,411

§ Raw data

STARLINK-11475 [DTC]1 62226U 24231J   26264.15446369  .00148654  00000+0  12093-2 0  99922 62226  53.1565 217.5319 0000766  67.7663 292.3436 15.69723830104117

JSON: /api/v1/satellites/62226 · /tle

For live sub-satellite position, see the globe view (requires WebGL).

§ Visibility from observer

Set your observer location to see the next 7 days of passes ≥ 10°. The values pass through the URL so the page stays shareable.

No JS? Fill the form by hand. The geolocation button needs JavaScript.